Wind_Speed
20 23 24 24 24 24 26 29 32 32 32 34 36 38 41 43 45 47 49 51 53 54 56 57 57 57 57 57 58 59 58 56 51 48 46 45 45 44 42 40 39 37 34 32
22 24 25 26 27 28 29 30 33 34 36 38 40 42 44 47 50 52 54 56 58 60 62 63 62 60 59 59 60 60 60 58 55 54 52 50 49 47 46 43 40 38 34 32
25 25 26 28 29 31 32 34 36 38 39 40 42 43 47 50 53 55 57 59 62 63 63 64 64 63 63 62 62 63 64 64 63 61 59 57 54 51 47 45 42 39 35 32
29 29 32 33 34 35 37 39 39 39 40 42 46 48 50 53 55 56 57 60 63 65 66 68 70 72 73 71 70 72 73 72 71 69 65 62 58 53 49 46 43 41 36 32
32 32 34 36 38 40 41 42 43 43 46 49 53 55 56 61 66 70 73 75 77 79 81 82 84 85 86 84 82 81 79 77 75 71 67 63 59 55 51 48 45 42 37 32
33 34 35 37 39 40 44 46 47 50 53 57 60 64 65 68 72 75 78 81 83 85 86 87 88 90 89 88 86 83 79 75 70 65 60 57 55 53 51 49 46 43 39 33
31 33 35 36 39 43 46 51 55 59 63 66 70 73 75 77 79 81 82 84 85 85 85 84 83 83 83 81 78 74 68 61 54 48 45 44 45 47 48 47 46 43 39 34
31 33 36 39 43 47 53 58 63 67 72 76 79 81 83 84 83 82 79 76 73 71 68 64 62 61 60 58 54 50 44 38 35 32 31 34 36 40 44 45 44 42 40 35
34 37 42 47 51 56 61 67 71 76 79 82 84 84 82 78 73 68 63 58 54 51 47 43 42 43 43 40 37 33 30 28 27 28 29 30 33 37 41 43 41 41 40 35
40 44 48 53 58 63 68 74 78 81 82 82 79 74 67 62 57 53 48 44 41 40 38 36 35 36 36 35 33 30 29 29 30 31 31 31 32 34 40 44 40 39 39 35
46 50 53 58 64 69 75 79 81 80 77 72 65 60 57 53 48 44 41 39 40 41 41 40 40 38 36 37 37 36 36 34 34 34 33 32 31 32 38 45 43 40 38 35
50 54 59 64 69 75 79 80 78 74 65 57 53 51 48 46 45 44 44 45 46 47 48 48 47 45 43 41 41 41 40 39 37 35 34 33 30 31 37 44 44 41 39 35
54 59 64 69 73 77 77 74 68 59 52 46 43 44 45 46 48 49 51 51 53 54 54 53 52 51 49 46 44 42 40 38 37 35 33 31 29 29 37 43 44 42 40 37
58 63 67 72 76 76 74 68 57 47 42 41 42 44 47 49 51 52 53 54 56 56 55 54 53 52 49 47 44 41 39 37 35 32 31 29 27 28 35 40 43 42 40 38
60 65 71 76 77 74 69 59 46 39 38 40 44 48 50 52 53 55 56 56 55 54 52 51 49 46 44 42 40 38 36 34 32 30 29 27 26 27 34 39 43 43 41 37
63 68 74 77 78 72 62 49 39 37 40 43 47 50 52 53 54 54 55 55 53 50 47 43 39 36 34 33 33 32 32 32 31 29 27 26 26 29 36 41 44 42 41 37
67 71 76 79 77 68 52 41 37 39 43 47 50 52 52 52 52 52 52 52 50 46 41 36 30 25 23 23 24 26 28 29 29 27 26 26 27 33 38 41 43 42 39 35
70 74 78 77 72 61 44 36 36 40 46 50 52 52 52 51 50 50 49 50 47 43 37 31 24 18 14 13 16 21 24 25 26 26 27 28 32 37 41 43 41 41 38 35
71 75 76 72 66 54 40 35 37 42 48 51 52 51 50 49 48 47 45 46 44 41 36 29 22 14 6 5 10 16 21 23 25 27 29 32 36 40 42 42 42 40 37 34
71 74 74 68 60 47 36 36 39 44 48 51 50 49 48 47 45 43 42 42 41 39 37 32 25 16 9 5 10 15 19 24 28 31 34 37 40 41 41 40 40 38 34 31
71 74 72 66 54 41 36 37 40 44 48 49 49 48 46 45 43 40 39 38 38 37 34 33 29 21 13 10 13 19 26 32 36 38 39 41 41 40 38 37 36 34 32 29
70 72 70 64 49 36 34 36 40 44 46 47 46 45 44 43 41 38 36 37 37 36 33 31 27 22 17 17 23 30 37 40 41 43 43 41 39 37 35 33 32 31 29 26
69 70 68 61 46 34 33 36 40 42 44 44 44 43 42 43 41 39 37 37 36 34 31 27 23 21 24 28 35 39 41 42 42 41 39 37 34 32 31 30 30 29 26 24
67 68 66 58 45 34 32 35 38 40 40 40 41 41 41 42 40 37 34 33 32 29 26 23 23 26 31 35 39 39 39 38 36 34 32 30 28 27 26 27 28 27 25 23
65 65 63 56 42 32 31 34 37 38 37 37 37 37 38 39 38 34 31 29 26 24 22 21 24 28 32 35 35 35 33 31 28 26 24 23 22 23 24 26 27 26 24 22
63 63 60 54 43 33 32 34 37 37 36 34 33 33 33 34 34 31 28 25 22 21 21 22 25 28 30 32 31 30 28 26 24 22 20 20 20 22 24 24 25 25 23 21
62 61 56 49 41 33 31 33 35 36 35 33 31 30 30 31 30 28 25 22 19 18 19 21 24 26 27 27 27 25 23 21 19 17 15 16 18 20 22 23 23 23 21 19
Wind_Direction
314 310 309 306 302 299 298 300 301 300 296 295 294 293 291 290 288 287 286 285 285 285 286 286 286 287 288 289 291 291 291 291 293 294 296 297 297 299 301 302 303 303 305 303
314 311 309 306 302 299 298 298 297 296 294 294 292 291 289 288 286 285 284 284 283 284 284 283 282 282 282 284 286 287 287 287 289 291 293 293 292 293 294 295 296 296 296 296
315 311 308 305 303 303 302 302 301 300 299 299 297 296 294 292 288 285 283 281 279 277 275 274 275 276 279 282 283 284 285 285 287 289 289 288 287 286 286 287 287 287 287 287
315 312 311 310 308 309 310 309 307 305 304 302 298 294 292 288 284 283 282 281 280 278 277 277 279 281 282 282 282 282 283 284 284 284 284 283 281 279 278 278 278 278 278 278
315 314 313 314 316 317 316 314 313 309 304 299 295 292 288 285 284 284 284 283 282 281 281 281 281 282 283 283 282 282 281 281 282 281 280 278 275 272 269 268 267 268 268 268
316 316 316 318 318 319 317 313 312 307 303 300 297 294 292 288 286 285 284 284 284 284 284 284 284 284 283 283 282 282 282 282 281 280 277 273 268 263 259 259 257 257 258 258
319 319 320 322 321 319 313 313 312 309 307 304 301 299 297 293 290 289 288 287 287 287 286 286 286 286 285 284 283 282 280 279 276 273 270 267 263 255 248 247 247 249 250 250
326 326 324 323 321 318 315 315 313 311 309 306 303 301 298 296 295 294 294 293 293 293 293 293 292 291 290 288 285 279 273 267 262 261 264 265 262 253 239 235 236 240 243 243
330 327 325 323 321 319 318 316 314 312 309 306 304 303 302 302 302 301 300 298 297 297 298 298 297 296 295 291 285 275 263 257 258 262 269 274 268 254 238 229 225 232 236 236
328 327 325 323 321 320 319 317 315 313 311 310 310 310 311 311 310 307 304 301 300 300 300 300 299 298 297 293 287 277 268 265 266 269 272 276 271 257 239 225 219 222 229 227
329 328 326 324 323 321 320 318 316 315 315 315 315 316 316 316 316 314 311 306 302 301 300 298 296 294 292 288 283 278 274 271 269 269 272 272 268 257 238 223 217 214 216 214
331 329 327 326 324 323 321 320 319 318 319 319 319 320 320 321 319 316 312 307 303 300 298 296 293 290 287 283 278 275 272 271 268 268 269 267 263 253 236 222 212 206 204 201
332 330 329 327 325 324 323 323 323 324 325 326 325 324 324 322 319 316 313 309 305 302 298 294 290 287 284 280 275 271 269 267 265 264 263 260 258 246 230 219 208 199 196 194
332 331 330 328 327 327 328 328 328 329 330 329 329 327 325 323 321 319 317 314 310 305 300 295 290 285 280 276 271 266 263 261 259 256 255 252 248 235 223 212 200 192 190 192
332 332 331 331 331 332 333 332 333 334 333 332 331 330 328 327 326 325 323 321 318 314 308 301 294 287 279 272 266 259 255 251 247 246 244 238 232 224 213 202 192 186 187 190
335 335 333 334 335 337 336 336 337 337 336 335 334 333 332 332 332 331 330 327 325 322 317 310 301 291 280 269 259 251 243 238 234 232 229 224 219 209 200 194 186 184 185 187
336 336 336 338 339 340 339 339 340 339 338 337 337 337 338 337 337 337 338 338 336 334 329 322 313 298 283 266 250 238 229 222 220 218 215 209 203 193 189 186 181 181 182 184
337 337 338 341 341 341 341 341 341 340 339 340 340 341 342 342 342 343 345 347 347 347 345 339 332 316 291 260 236 222 213 207 205 201 196 191 186 182 182 179 177 178 181 183
339 339 341 343 342 341 342 342 341 341 342 342 343 344 345 346 346 348 351 353 355 357 0 359 357 352 332 240 204 195 193 192 187 181 177 174 173 173 174 175 175 178 182 184
340 340 342 344 343 341 341 341 341 343 344 345 346 347 348 348 349 353 355 358 1 4 11 16 18 20 34 99 153 164 168 167 165 162 160 161 163 167 170 170 173 177 179 181
340 341 343 345 344 341 341 342 343 345 346 346 348 349 350 350 353 357 360 5 8 10 15 20 26 34 53 89 124 138 142 144 146 148 150 153 157 162 165 167 171 174 176 176
341 342 344 346 346 343 342 342 345 347 347 348 350 352 352 353 358 3 5 9 13 14 18 21 26 36 62 95 117 126 130 133 138 142 145 150 155 159 162 165 168 171 172 174
341 342 344 347 347 345 345 344 346 348 349 350 352 354 355 358 0 5 11 14 17 20 23 29 40 60 85 103 114 119 123 128 135 140 143 148 152 157 161 165 167 169 173 177
341 343 345 347 347 345 345 345 347 350 351 350 351 353 355 360 5 10 13 16 21 27 34 46 64 82 95 105 112 117 122 128 134 139 144 147 152 157 163 166 167 169 173 176
342 343 345 346 347 343 344 346 349 351 352 352 352 355 357 1 8 13 17 22 30 39 52 69 83 94 102 108 112 116 120 125 131 137 143 149 154 158 162 165 168 171 174 175
343 344 345 346 347 345 344 346 348 350 352 354 355 359 1 4 10 15 21 29 39 53 69 85 95 101 105 108 112 114 116 120 125 130 136 144 152 159 164 169 173 174 174 176
343 344 345 345 345 344 343 343 347 350 353 356 359 3 6 9 14 19 25 35 50 66 81 94 100 104 107 110 112 114 116 118 123 131 142 153 162 167 170 172 174 175 178 183
Height
5834 5830 5827 5824 5821 5818 5814 5809 5805 5802 5797 5793 5788 5784 5779 5775 5770 5766 5762 5757 5753 5749 5745 5741 5738 5735 5732 5729 5726 5724 5721 5720 5719 5718 5717 5716 5714 5712 5710 5708 5705 5702 5699 5696
5830 5826 5822 5819 5815 5812 5808 5803 5798 5794 5789 5784 5779 5775 5770 5764 5759 5753 5748 5743 5738 5733 5728 5724 5721 5718 5715 5712 5710 5707 5705 5704 5703 5703 5702 5703 5702 5701 5700 5698 5696 5694 5692 5689
5825 5821 5817 5814 5809 5805 5801 5796 5791 5785 5781 5775 5769 5764 5758 5751 5745 5738 5733 5727 5721 5716 5710 5706 5702 5699 5696 5694 5692 5690 5688 5687 5686 5686 5686 5686 5687 5687 5687 5687 5686 5684 5683 5682
5819 5816 5811 5808 5801 5797 5791 5786 5781 5775 5769 5763 5757 5751 5744 5736 5729 5722 5715 5709 5703 5697 5692 5687 5682 5678 5674 5672 5671 5669 5668 5666 5666 5666 5666 5667 5669 5671 5672 5673 5673 5674 5673 5673
5812 5808 5803 5798 5792 5787 5781 5775 5770 5765 5758 5752 5744 5738 5732 5721 5713 5705 5697 5689 5683 5676 5670 5665 5658 5652 5649 5648 5646 5644 5642 5641 5642 5642 5644 5645 5648 5651 5654 5657 5659 5661 5662 5663
5805 5800 5796 5793 5785 5778 5773 5765 5760 5753 5745 5737 5728 5720 5715 5703 5692 5682 5672 5664 5655 5648 5643 5637 5630 5623 5620 5620 5618 5616 5615 5615 5616 5617 5619 5622 5625 5630 5635 5640 5644 5646 5649 5652
5800 5794 5789 5784 5778 5771 5764 5757 5747 5736 5726 5716 5706 5696 5687 5676 5665 5655 5646 5638 5629 5622 5617 5612 5605 5597 5593 5593 5591 5589 5588 5589 5591 5594 5596 5599 5603 5608 5614 5621 5627 5632 5636 5640
5794 5789 5785 5777 5769 5761 5752 5740 5729 5718 5707 5694 5683 5671 5659 5648 5637 5627 5617 5609 5600 5593 5589 5585 5578 5571 5567 5566 5564 5563 5565 5568 5572 5575 5578 5581 5584 5588 5595 5602 5610 5617 5623 5628
5788 5783 5774 5765 5756 5747 5735 5724 5712 5699 5686 5671 5656 5644 5632 5620 5610 5601 5593 5586 5580 5574 5570 5567 5562 5556 5552 5550 5547 5548 5550 5554 5558 5561 5563 5566 5568 5572 5578 5585 5593 5602 5610 5616
5781 5774 5766 5756 5745 5734 5721 5707 5693 5677 5661 5645 5629 5617 5607 5598 5590 5582 5575 5569 5564 5560 5556 5553 5549 5545 5541 5539 5537 5537 5540 5543 5546 5548 5550 5551 5553 5556 5561 5569 5577 5588 5597 5605
5773 5765 5756 5746 5733 5719 5705 5688 5671 5655 5639 5624 5610 5600 5591 5583 5575 5568 5562 5557 5552 5547 5542 5539 5535 5532 5529 5527 5525 5526 5527 5530 5532 5534 5536 5537 5539 5541 5546 5554 5564 5574 5585 5594
5765 5754 5743 5732 5718 5703 5686 5669 5651 5635 5622 5611 5599 5589 5580 5572 5565 5558 5551 5545 5538 5532 5527 5522 5518 5515 5513 5512 5511 5511 5512 5515 5518 5520 5522 5524 5527 5529 5534 5541 5552 5563 5574 5585
5754 5743 5731 5717 5702 5685 5668 5651 5635 5620 5607 5598 5590 5581 5573 5565 5557 5548 5539 5531 5522 5515 5508 5502 5497 5495 5493 5492 5492 5494 5496 5499 5503 5506 5509 5512 5515 5518 5524 5532 5542 5555 5566 5577
5743 5732 5719 5704 5687 5669 5651 5635 5620 5609 5599 5590 5582 5574 5565 5556 5546 5536 5525 5514 5504 5494 5486 5479 5474 5472 5470 5469 5471 5475 5479 5483 5488 5492 5496 5500 5504 5508 5515 5524 5535 5548 5561 5571
5734 5720 5705 5688 5671 5654 5636 5621 5610 5601 5593 5585 5577 5567 5556 5545 5533 5522 5509 5497 5485 5473 5464 5456 5450 5447 5446 5447 5450 5455 5461 5467 5473 5479 5484 5490 5495 5501 5509 5520 5532 5544 5556 5566
5723 5708 5692 5675 5657 5640 5624 5612 5603 5596 5588 5579 5570 5559 5547 5534 5521 5509 5495 5482 5468 5456 5445 5436 5430 5427 5426 5427 5431 5438 5444 5452 5460 5467 5474 5481 5488 5496 5506 5517 5529 5541 5553 5563
5711 5697 5681 5664 5646 5630 5616 5606 5599 5591 5582 5573 5563 5551 5538 5525 5513 5500 5486 5472 5457 5444 5432 5422 5416 5412 5412 5413 5418 5424 5431 5440 5448 5457 5466 5474 5482 5492 5504 5515 5527 5539 5551 5561
5698 5682 5666 5649 5632 5621 5611 5603 5595 5586 5577 5567 5556 5544 5531 5518 5505 5492 5480 5466 5452 5438 5426 5417 5410 5405 5404 5406 5409 5415 5423 5432 5441 5451 5460 5470 5480 5492 5504 5516 5528 5539 5550 5559
5690 5673 5658 5642 5626 5614 5605 5598 5591 5582 5572 5562 5551 5538 5526 5514 5501 5489 5477 5465 5452 5439 5428 5417 5410 5405 5403 5404 5407 5413 5420 5429 5438 5448 5459 5470 5481 5494 5506 5518 5529 5540 5549 5559
5682 5666 5651 5636 5622 5610 5602 5596 5588 5579 5569 5558 5547 5536 5524 5512 5501 5489 5477 5466 5454 5443 5432 5422 5415 5410 5408 5408 5410 5415 5421 5430 5439 5450 5462 5474 5486 5498 5510 5521 5532 5541 5551 5559
5675 5660 5646 5632 5619 5608 5600 5593 5585 5577 5567 5556 5545 5534 5523 5512 5501 5491 5480 5470 5460 5449 5440 5431 5424 5419 5417 5416 5417 5421 5427 5435 5446 5457 5469 5481 5493 5505 5515 5525 5534 5543 5552 5560
5669 5655 5641 5628 5616 5606 5599 5591 5583 5575 5565 5555 5545 5535 5524 5514 5504 5494 5484 5475 5466 5457 5449 5442 5436 5431 5428 5427 5428 5432 5438 5447 5458 5469 5480 5491 5502 5511 5520 5529 5537 5546 5553 5561
5664 5650 5636 5624 5612 5604 5597 5590 5583 5575 5565 5555 5545 5535 5526 5516 5506 5497 5489 5482 5474 5467 5460 5453 5448 5444 5441 5441 5443 5448 5455 5464 5473 5483 5492 5501 5510 5518 5526 5533 5541 5548 5555 5561
5660 5646 5632 5620 5609 5602 5596 5590 5583 5575 5566 5557 5547 5537 5528 5520 5511 5503 5495 5488 5482 5476 5471 5466 5462 5459 5458 5459 5462 5468 5474 5481 5489 5497 5504 5511 5518 5524 5531 5537 5544 5551 5557 5563
5655 5642 5629 5618 5609 5601 5595 5589 5582 5576 5568 5560 5550 5541 5532 5523 5515 5508 5502 5496 5491 5487 5483 5480 5477 5476 5476 5477 5480 5485 5490 5496 5502 5507 5513 5519 5524 5530 5535 5541 5547 5553 5558 5564
5651 5638 5626 5614 5605 5599 5593 5587 5581 5574 5568 5561 5553 5544 5537 5529 5522 5515 5510 5505 5501 5497 5495 5493 5492 5491 5492 5493 5496 5500 5503 5507 5512 5516 5520 5525 5529 5534 5539 5544 5550 5555 5560 5565
5647 5635 5624 5614 5605 5598 5592 5587 5581 5574 5567 5560 5553 5547 5540 5534 5528 5522 5518 5514 5510 5508 5506 5505 5505 5505 5506 5508 5510 5512 5515 5517 5520 5523 5526 5529 5533 5537 5541 5546 5551 5556 5561 5566